Meteo Giornale » Osservazioni meteo Canada » Thunder Bay Ont
ore: 23:00 - Osservazioni Meteo Thunder Bay Ont
Lat. 48° 22' N Lon. 89° 19' W Alt. 199 metri s.l.m.
18 °C
Foschia
Temp. 24 Ore
17 °C
18 °C
Nord
3.7 Km/h
Dew point 18 °C
Umidità 100 %
Visibilità 8 Km
Il sole sorge alle ore 07:13
Il sole tramonta alle ore 20:41
| Data e Ora | Cielo e Fenomeni | T °C | DP °C | Um. % | Pres. hPa | Vis. km | Vento km/h | |
|---|---|---|---|---|---|---|---|---|
| Oggi h: 23:00 | Foschia | 18 | 18 | 100 | 1011 | 8 | N 3.7 | |
| Oggi h: 22:00 | Foschia | 17 | 17 | 100 | 1010 | 5 | E 7.4 | |
| Oggi h: 21:54 | Foschia | 17 | 17 | 100 | 1010 | 2 | N 5.5 | |
| Oggi h: 21:33 | Foschia | 18 | 18 | 100 | 1010 | 2 | E 7.4 | |
| Oggi h: 21:00 | Foschia | 18 | 18 | 100 | 1010 | 6 | E 9.3 | |
| Oggi h: 20:00 | Foschia | 18 | 18 | 100 | 1010 | 8 | N 0 | |
| Oggi h: 19:00 | Foschia | 18 | 17 | 93 | 1010 | 6 | N 3.7 | |
| Oggi h: 18:00 | Foschia | 18 | 18 | 100 | 1010 | 5 | E 7.4 | |
| Oggi h: 17:00 | Foschia | 18 | 18 | 100 | 1010 | 5 | E 7.4 | |
| Oggi h: 16:00 | Foschia | 18 | 17 | 93 | 1010 | 6 | E 14.8 | |
| Oggi h: 15:00 | Foschia | 18 | 17 | 93 | 1010 | 5 | E 16.7 | |
| Oggi h: 14:00 | Foschia | 18 | 18 | 100 | 1010 | 5 | E 14.8 | |
| Oggi h: 13:00 | Foschia | 18 | 17 | 93 | 1011 | 8 | E/NE 13 | |
| Oggi h: 12:00 | Foschia | 17 | 17 | 100 | 1011 | 10 | E/NE 13 | |
| Oggi h: 11:00 | Foschia | 17 | 17 | 100 | 1011 | 8 | E 16.7 | |
| Oggi h: 10:00 | Foschia | 17 | 17 | 100 | 1010 | 6 | E 16.7 | |
| Oggi h: 09:00 | Pioggia Foschia | 17 | 17 | 100 | 1011 | 3 | E 20.3 | |
| Oggi h: 08:39 | Pioggia Foschia | 17 | 17 | 100 | 1011 | 2 | E/NE 16.7 | |
| Oggi h: 08:32 | Pioviggine Foschia | 17 | 17 | 100 | 1011 | 2 | E/NE 7.4 | |
| Oggi h: 08:00 | Foschia | 17 | 17 | 100 | 1011 | 5 | E 14.8 | |
| Oggi h: 07:00 | Foschia | 17 | 17 | 100 | 1011 | 5 | E 14.8 | |
| Oggi h: 06:00 | Foschia | 17 | 17 | 100 | 1011 | 3 | E 18.5 | |
| Oggi h: 05:53 | Pioggia Foschia | 17 | 17 | 100 | 1011 | 2 | E 13 | |
| Oggi h: 05:42 | Pioggia Nebbia | 17 | 17 | 100 | 1011 | 5 | E 18.5 | |
| Oggi h: 05:30 | Pioggia Foschia | 17 | 17 | 100 | 1011 | 2 | E 14.8 | |
| Oggi h: 05:05 | Foschia | 17 | 17 | 100 | 1011 | 3 | E 16.7 | |
| Oggi h: 05:00 | Foschia | 17 | 17 | 100 | 1011 | 8 | E 16.7 | |
| Oggi h: 04:26 | Coperto | 17 | 17 | 100 | 1011 | 10 | E/NE 18.5 | |
| Oggi h: 04:00 | Coperto | 17 | 17 | 100 | 1013 | 10 | E/SE 11.1 | |
| Oggi h: 03:46 | Coperto | 17 | 17 | 100 | 1013 | 10 | E/SE 16.7 | |
| Oggi h: 03:00 | Coperto | 17 | 17 | 100 | 1013 | 10 | E/SE 20.3 | |
| Oggi h: 02:00 | Coperto | 17 | 17 | 100 | 1014 | 10 | E 20.3 | |
| Oggi h: 01:38 | Coperto | 17 | 17 | 100 | 1014 | 10 | E 20.3 | |
| Oggi h: 01:00 | Pioggia | 17 | 17 | 100 | 1014 | 10 | E 18.5 | |
| Oggi h: 00:51 | Pioggia | 17 | 17 | 100 | 1015 | 10 | E 16.7 | |
| Oggi h: 00:07 | Coperto | 17 | 17 | 100 | 1015 | 10 | E 14.8 | |
| Oggi h: 00:00 | Coperto | 17 | 17 | 100 | 1015 | 10 | E 14.8 | |



